Location: Newark
(40.3500°N, 15.2333°E)
Time: 04:35:46
(UTC+00:00)

Altair - All Passes

Search period start: 18 January 2020 00:00
Search period end: 28 January 2020 00:00
Orbit: 1502 x 1682 km, 47.2° (Epoch: 17 January)

Date Brightness Start Highest point End Pass type
(mag) Time Alt. Az. Time Alt. Az. Time Alt. Az.
18 Jan - 06:42:16 10° SSE 06:48:09 17° ESE 06:54:03 10° E daylight
18 Jan - 08:41:36 10° SW 08:51:27 60° SE 09:01:20 10° ENE daylight
18 Jan - 10:46:15 10° WSW 10:56:25 70° NNW 11:06:29 10° ENE daylight
18 Jan - 12:52:25 10° WNW 13:02:28 60° N 13:12:15 10° E daylight
18 Jan - 14:57:55 10° WNW 15:08:03 87° SSW 15:17:46 10° ESE daylight
18 Jan - 17:03:37 10° WNW 17:11:58 32° SW 17:20:03 10° S visible
19 Jan - 06:18:01 10° SSE 06:23:06 15° ESE 06:28:13 10° E daylight
19 Jan - 08:16:34 10° SSW 08:26:18 56° SE 08:36:06 10° ENE daylight
19 Jan - 10:20:58 10° WSW 10:31:08 72° NNW 10:41:16 10° ENE daylight
19 Jan - 12:27:07 10° WNW 12:37:10 59° N 12:46:59 10° E daylight
19 Jan - 14:32:40 10° WNW 14:42:50 89° NNE 14:52:36 10° ESE daylight
19 Jan - 16:38:14 10° WNW 16:46:54 35° SW 16:55:16 10° SSE visible
20 Jan - 05:53:59 10° SE 05:58:05 13° ESE 06:02:11 10° E daylight
20 Jan - 07:51:33 10° SSW 08:01:09 52° SE 08:10:51 10° ENE daylight
20 Jan - 09:55:41 10° WSW 10:05:52 75° NNW 10:16:02 10° ENE daylight
20 Jan - 12:01:50 10° WNW 12:11:52 59° N 12:21:42 10° E daylight
20 Jan - 14:07:25 10° WNW 14:17:37 85° NNE 14:27:26 10° ESE daylight
20 Jan - 16:12:54 10° WNW 16:21:49 39° SW 16:30:26 10° SSE visible
21 Jan - 05:30:27 10° SE 05:33:03 11° ESE 05:35:39 10° ESE visible
21 Jan - 07:26:34 10° SSW 07:36:00 48° SE 07:45:34 10° ENE daylight
21 Jan - 09:30:26 10° WSW 09:40:36 77° NNW 09:50:48 10° ENE daylight
21 Jan - 11:36:31 10° WNW 11:46:33 59° N 11:56:25 10° E daylight
21 Jan - 13:42:11 10° WNW 13:52:24 82° NNE 14:02:15 10° ESE daylight
21 Jan - 15:47:34 10° WNW 15:56:43 42° SW 16:05:33 10° SSE daylight
22 Jan - 07:01:36 10° SSW 07:10:53 45° SE 07:20:17 10° ENE daylight
22 Jan - 09:05:11 10° WSW 09:15:21 81° NNW 09:25:34 10° ENE daylight
22 Jan - 11:11:12 10° W 11:21:15 59° N 11:31:09 10° ENE daylight
22 Jan - 13:16:56 10° WNW 13:27:09 79° NNE 13:37:02 10° ESE daylight
22 Jan - 15:22:16 10° WNW 15:31:37 46° SW 15:40:39 10° SSE daylight
23 Jan - 06:36:41 10° SSW 06:45:45 41° SE 06:54:58 10° ENE daylight
23 Jan - 08:39:57 10° WSW 08:50:06 84° NNW 09:00:21 10° ENE daylight
23 Jan - 10:45:54 10° W 10:55:56 59° N 11:05:52 10° ENE daylight
23 Jan - 12:51:42 10° WNW 13:01:54 76° NNE 13:11:49 10° ESE daylight
23 Jan - 14:56:58 10° WNW 15:06:30 50° SW 15:15:42 10° SSE daylight
23 Jan - 17:06:30 10° WSW 17:09:24 12° WSW 17:12:16 10° SW visible
24 Jan - 06:11:48 10° SSW 06:20:39 38° SE 06:29:39 10° ENE daylight
24 Jan - 08:14:44 10° WSW 08:24:52 88° NNW 08:35:07 10° ENE daylight
24 Jan - 10:20:35 10° W 10:30:37 59° N 10:40:35 10° ENE daylight
24 Jan - 12:26:26 10° WNW 12:36:39 73° NNE 12:46:35 10° ESE daylight
24 Jan - 14:31:42 10° WNW 14:41:22 54° SW 14:50:44 10° SSE daylight
24 Jan - 16:40:08 10° W 16:44:23 14° WSW 16:48:36 10° SSW visible
25 Jan - 05:46:57 10° SSW 05:55:33 35° SE 06:04:18 10° ENE visible
25 Jan - 07:49:32 10° WSW 07:59:39 89° SSE 08:09:53 10° ENE daylight
25 Jan - 09:55:16 10° W 10:05:18 60° N 10:15:18 10° ENE daylight
25 Jan - 12:01:11 10° WNW 12:11:23 71° NNE 12:21:19 10° ESE daylight
25 Jan - 14:06:26 10° WNW 14:16:14 58° SW 14:25:44 10° SE daylight
25 Jan - 16:14:09 10° W 16:19:22 16° WSW 16:24:32 10° SSW daylight
26 Jan - 05:22:10 10° S 05:30:28 32° SE 05:38:56 10° ENE visible
26 Jan - 07:24:22 10° SW 07:34:25 85° SSE 07:44:39 10° ENE daylight
26 Jan - 09:29:58 10° W 09:40:00 61° N 09:50:02 10° ENE daylight
26 Jan - 11:35:55 10° WNW 11:46:06 68° NNE 11:56:05 10° E daylight
26 Jan - 13:41:10 10° WNW 13:51:05 62° SW 14:00:42 10° SE daylight
26 Jan - 15:48:22 10° W 15:54:21 18° WSW 16:00:15 10° SSW daylight
27 Jan - 04:57:24 10° S 05:05:24 29° SE 05:13:32 10° ENE visible
27 Jan - 06:59:12 10° SW 07:09:13 81° SSE 07:19:25 10° ENE daylight
27 Jan - 09:04:39 10° W 09:14:42 62° N 09:24:46 10° ENE daylight
27 Jan - 11:10:39 10° WNW 11:20:49 66° NNE 11:30:48 10° E daylight
27 Jan - 13:15:55 10° WNW 13:25:56 66° SW 13:35:39 10° SE daylight
27 Jan - 15:22:42 10° W 15:29:19 20° SW 15:35:49 10° SSW daylight
